Location: Lucerne Valley
(34.4439°N, 116.9669°E)
Time: 02:38:31
(UTC-07:00)

N. Korean satellite - Pass Details

Date: 14 October 2017
Orbit: 459 x 517 km, 97.2° (Epoch: 23 October)

Event Time Altitude Azimuth Distance (km) Brightness Sun altitude
Rises 03:45:21 0° 185° (S) 2,557 10.3 -14.4°
Reaches altitude 10° 03:47:33 10° 194° (SSW) 1,670 9.5 -14.9°
Maximum altitude 03:50:52 35° 262° (W) 793 8.3 -15.5°
Drops below altitude 10° 03:54:09 10° 329° (NNW) 1,651 9.7 -16.2°
Sets 03:56:19 0° 339° (NNW) 2,523 10.5 -16.7°
